Location: Eurasberg
(48.3353°N, 11.0839°E)
Time: 09:28:51
(UTC+00:00)

Cosmos 1500 Rocket - Pass Details

Date: 18 January 2026
Orbit: 597 x 623 km, 82.5° (Epoch: 18 February)

Event Time Altitude Azimuth Distance (km) Brightness Sun altitude
Rises 05:18:08 0° 213° (SSW) 2,859 6.8 -16.5°
Reaches altitude 10° 05:20:31 10° 224° (SW) 1,965 5.8 -16.1°
Maximum altitude 05:24:26 32° 288° (WNW) 1,063 4.2 -15.4°
Drops below altitude 10° 05:28:25 10° 352° (N) 1,993 5.9 -14.8°
Sets 05:30:51 0° 2° (N) 2,908 6.9 -14.4°
